Time,TemperatureF,DewpointF,PressureIn,WindDirection,WindDirectionDegrees,WindSpeedMPH,WindSpeedGustMPH,Humidity,HourlyPrecipIn,Conditions,Clouds,dailyrainin,SoftwareType,DateUTC
2013-03-22 00:03:00,26.0,16.0,29.48,West,277,0.0,0.0,66,0.00,,,0.38,,2013-03-22 04:03:00,
2013-03-22 00:12:00,26.0,16.0,29.48,West,277,0.0,0.0,66,0.00,,,0.38,,2013-03-22 04:12:00,
2013-03-22 00:23:00,25.0,15.0,29.48,West,277,0.0,0.0,66,0.00,,,0.38,,2013-03-22 04:23:00,
2013-03-22 00:32:00,25.0,16.0,29.48,West,277,0.0,0.0,67,0.00,,,0.38,,2013-03-22 04:32:00,
2013-03-22 00:43:00,25.0,16.0,29.48,West,277,0.0,0.0,67,0.00,,,0.38,,2013-03-22 04:43:00,
2013-03-22 00:52:00,24.0,16.0,29.48,West,277,0.0,0.0,70,0.00,,,0.38,,2013-03-22 04:52:00,
2013-03-22 01:02:00,23.0,14.0,29.48,West,278,0.0,0.0,69,0.00,,,0.38,,2013-03-22 05:02:00,
2013-03-22 01:12:00,23.0,14.0,29.48,West,278,0.0,0.0,69,0.00,,,0.38,,2013-03-22 05:12:00,
2013-03-22 01:22:00,23.0,15.0,29.48,West,278,0.0,0.0,70,0.00,,,0.38,,2013-03-22 05:22:00,
2013-03-22 01:32:00,24.0,15.0,29.49,West,278,0.0,0.0,69,0.00,,,0.38,,2013-03-22 05:32:00,
2013-03-22 01:42:00,24.0,15.0,29.49,West,278,0.0,0.0,69,0.00,,,0.38,,2013-03-22 05:42:00,
2013-03-22 01:52:00,25.0,15.0,29.49,West,261,0.0,0.0,65,0.00,,,0.38,,2013-03-22 05:52:00,
2013-03-22 02:02:00,26.0,16.0,29.48,SSW,199,0.0,0.0,64,0.00,,,0.38,,2013-03-22 06:02:00,
2013-03-22 02:13:00,26.0,16.0,29.48,SSW,199,0.0,0.0,64,0.00,,,0.38,,2013-03-22 06:13:00,
2013-03-22 02:22:00,26.0,16.0,29.48,SW,236,0.0,0.0,64,0.00,,,0.38,,2013-03-22 06:22:00,
2013-03-22 02:32:00,26.0,14.0,29.48,WNW,299,0.0,6.0,60,0.00,,,0.38,,2013-03-22 06:32:00,
2013-03-22 02:42:00,26.0,14.0,29.48,WNW,299,0.0,6.0,60,0.00,,,0.38,,2013-03-22 06:42:00,
2013-03-22 02:52:00,27.0,16.0,29.48,SW,234,0.0,0.0,63,0.00,,,0.38,,2013-03-22 06:52:00,
2013-03-22 03:03:00,27.0,16.0,29.48,SW,234,0.0,0.0,63,0.00,,,0.38,,2013-03-22 07:03:00,
2013-03-22 03:12:00,27.0,16.0,29.48,SW,234,0.0,0.0,63,0.00,,,0.38,,2013-03-22 07:12:00,
2013-03-22 03:22:00,26.0,14.0,29.47,NNW,329,0.0,2.0,61,0.00,,,0.38,,2013-03-22 07:22:00,
2013-03-22 03:32:00,25.0,14.0,29.47,WNW,296,0.0,0.0,63,0.00,,,0.38,,2013-03-22 07:32:00,
2013-03-22 03:42:00,25.0,14.0,29.47,WNW,296,0.0,0.0,63,0.00,,,0.38,,2013-03-22 07:42:00,
2013-03-22 03:52:00,25.0,14.0,29.47,WSW,241,0.0,0.0,63,0.00,,,0.38,,2013-03-22 07:52:00,
2013-03-22 04:03:00,25.0,15.0,29.47,WSW,241,0.0,0.0,65,0.00,,,0.38,,2013-03-22 08:03:00,
2013-03-22 04:13:00,25.0,15.0,29.47,WSW,241,0.0,0.0,65,0.00,,,0.38,,2013-03-22 08:13:00,
2013-03-22 04:22:00,25.0,15.0,29.47,WSW,241,0.0,0.0,65,0.00,,,0.38,,2013-03-22 08:22:00,
2013-03-22 04:32:00,24.0,15.0,29.46,NW,306,0.0,0.0,67,0.00,,,0.38,,2013-03-22 08:32:00,
2013-03-22 04:42:00,24.0,15.0,29.46,NW,306,0.0,0.0,67,0.00,,,0.38,,2013-03-22 08:42:00,
2013-03-22 04:52:00,24.0,14.0,29.47,WSW,240,0.0,0.0,64,0.00,,,0.38,,2013-03-22 08:52:00,
2013-03-22 05:02:00,24.0,13.0,29.47,West,268,0.0,0.0,62,0.00,,,0.38,,2013-03-22 09:02:00,
2013-03-22 05:12:00,24.0,13.0,29.47,West,268,0.0,0.0,62,0.00,,,0.38,,2013-03-22 09:12:00,
2013-03-22 05:22:00,24.0,13.0,29.47,WSW,244,0.0,2.0,61,0.00,,,0.38,,2013-03-22 09:22:00,
2013-03-22 05:32:00,24.0,13.0,29.48,SSW,210,0.0,0.0,63,0.00,,,0.38,,2013-03-22 09:32:00,
2013-03-22 05:42:00,24.0,13.0,29.48,SSW,210,0.0,0.0,63,0.00,,,0.38,,2013-03-22 09:42:00,
2013-03-22 05:53:00,24.0,13.0,29.48,SSW,210,0.0,0.0,63,0.00,,,0.38,,2013-03-22 09:53:00,
2013-03-22 06:04:00,24.0,17.0,29.48,NW,323,0.0,0.0,75,0.00,,,0.38,,2013-03-22 10:04:00,
2013-03-22 06:12:00,24.0,17.0,29.48,NW,323,0.0,0.0,75,0.00,,,0.38,,2013-03-22 10:12:00,
2013-03-22 06:23:00,24.0,17.0,29.49,NNW,343,0.0,0.0,75,0.00,,,0.38,,2013-03-22 10:23:00,
2013-03-22 06:33:00,24.0,14.0,29.49,WSW,243,0.0,0.0,66,0.00,,,0.38,,2013-03-22 10:33:00,
2013-03-22 06:42:00,24.0,14.0,29.49,WSW,243,0.0,0.0,66,0.00,,,0.38,,2013-03-22 10:42:00,
2013-03-22 06:52:00,24.0,14.0,29.49,WSW,243,0.0,0.0,66,0.00,,,0.38,,2013-03-22 10:52:00,
2013-03-22 07:03:00,24.0,15.0,29.50,SW,227,0.0,0.0,67,0.00,,,0.38,,2013-03-22 11:03:00,
2013-03-22 07:12:00,24.0,15.0,29.50,SW,227,0.0,0.0,67,0.00,,,0.38,,2013-03-22 11:12:00,
2013-03-22 07:22:00,24.0,14.0,29.50,North,0,0.0,0.0,65,0.00,,,0.38,,2013-03-22 11:22:00,
2013-03-22 07:33:00,24.0,14.0,29.50,North,0,0.0,0.0,65,0.00,,,0.38,,2013-03-22 11:33:00,
2013-03-22 07:42:00,24.0,14.0,29.50,North,0,0.0,0.0,65,0.00,,,0.38,,2013-03-22 11:42:00,
2013-03-22 07:52:00,24.0,14.0,29.51,West,277,0.0,0.0,66,0.00,,,0.38,,2013-03-22 11:52:00,
2013-03-22 08:02:00,24.0,14.0,29.51,West,277,0.0,0.0,66,0.00,,,0.38,,2013-03-22 12:02:00,
2013-03-22 08:12:00,24.0,14.0,29.51,West,277,0.0,0.0,66,0.00,,,0.38,,2013-03-22 12:12:00,
2013-03-22 09:01:00,29.0,17.0,29.52,NW,305,0.0,0.0,61,0.00,,,0.36,,2013-03-22 13:01:00,
2013-03-22 09:22:00,29.0,17.0,29.52,NW,305,0.0,0.0,61,0.00,,,0.36,,2013-03-22 13:22:00,
2013-03-22 09:32:00,29.0,17.0,29.52,NW,305,0.0,0.0,61,0.00,,,0.36,,2013-03-22 13:32:00,
2013-03-22 09:42:00,29.0,17.0,29.52,NW,305,0.0,0.0,61,0.00,,,0.36,,2013-03-22 13:42:00,
2013-03-22 09:52:00,29.0,17.0,29.52,NW,305,0.0,0.0,61,0.00,,,0.36,,2013-03-22 13:52:00,
2013-03-22 10:22:00,31.0,17.0,29.51,North,0,0.0,1.0,56,0.00,,,0.36,,2013-03-22 14:22:00,
2013-03-22 10:32:00,31.0,17.0,29.51,North,0,0.0,1.0,56,0.00,,,0.36,,2013-03-22 14:32:00,
2013-03-22 10:43:00,31.0,17.0,29.51,North,0,0.0,1.0,56,0.00,,,0.36,,2013-03-22 14:43:00,
2013-03-22 10:52:00,31.0,17.0,29.51,North,0,0.0,1.0,56,0.00,,,0.36,,2013-03-22 14:52:00,
2013-03-22 11:22:00,35.0,15.0,29.51,SSW,210,6.0,7.0,43,0.01,,,0.19,,2013-03-22 15:22:00,
2013-03-22 11:33:00,35.0,15.0,29.51,SSW,210,6.0,7.0,43,0.01,,,0.19,,2013-03-22 15:33:00,
2013-03-22 11:43:00,35.0,15.0,29.51,SSW,210,6.0,7.0,43,0.01,,,0.19,,2013-03-22 15:43:00,
2013-03-22 11:50:00,35.0,13.0,29.49,NW,323,0.0,4.0,40,0.01,,,0.19,,2013-03-22 15:50:00,
2013-03-22 11:53:00,35.0,15.0,29.51,SSW,210,6.0,7.0,43,0.01,,,0.19,,2013-03-22 15:53:00,
2013-03-22 12:03:00,34.0,14.0,29.50,WSW,246,1.0,14.0,43,0.01,,,0.19,,2013-03-22 16:03:00,
2013-03-22 12:13:00,35.0,13.0,29.49,NW,323,0.0,4.0,40,0.01,,,0.19,,2013-03-22 16:13:00,
2013-03-22 12:23:00,35.0,13.0,29.49,NW,323,0.0,4.0,40,0.01,,,0.19,,2013-03-22 16:23:00,
2013-03-22 12:32:00,35.0,13.0,29.49,NW,323,0.0,4.0,40,0.01,,,0.19,,2013-03-22 16:32:00,
2013-03-22 12:42:00,35.0,13.0,29.49,NW,323,0.0,4.0,40,0.01,,,0.19,,2013-03-22 16:42:00,
2013-03-22 13:03:00,35.0,13.0,29.48,West,261,0.0,0.0,39,0.01,,,0.14,,2013-03-22 17:03:00,
2013-03-22 13:12:00,35.0,12.0,29.48,WSW,244,0.0,6.0,38,0.01,,,0.09,,2013-03-22 17:12:00,
2013-03-22 13:23:00,35.0,12.0,29.48,WSW,244,0.0,6.0,38,0.01,,,0.09,,2013-03-22 17:23:00,
2013-03-22 13:32:00,35.0,12.0,29.48,WSW,244,0.0,6.0,38,0.01,,,0.09,,2013-03-22 17:32:00,
2013-03-22 13:42:00,35.0,12.0,29.48,WSW,244,0.0,6.0,38,0.01,,,0.09,,2013-03-22 17:42:00,
2013-03-22 13:53:00,36.0,13.0,29.47,WSW,248,5.0,11.0,39,0.00,,,0.09,,2013-03-22 17:53:00,
2013-03-22 14:02:00,36.0,12.0,29.47,WSW,243,13.0,13.0,37,0.00,,,0.09,,2013-03-22 18:02:00,
2013-03-22 14:12:00,36.0,12.0,29.47,WSW,243,13.0,13.0,37,0.00,,,0.09,,2013-03-22 18:12:00,
2013-03-22 14:22:00,36.0,12.0,29.47,WSW,243,13.0,13.0,37,0.00,,,0.09,,2013-03-22 18:22:00,
2013-03-22 14:33:00,35.0,15.0,29.47,WSW,256,3.0,4.0,44,0.00,,,0.06,,2013-03-22 18:33:00,
2013-03-22 14:42:00,35.0,15.0,29.47,WSW,256,3.0,4.0,44,0.00,,,0.06,,2013-03-22 18:42:00,
2013-03-22 14:52:00,35.0,13.0,29.47,SSE,164,4.0,7.0,40,0.00,,,0.06,,2013-03-22 18:52:00,
2013-03-22 15:02:00,35.0,13.0,29.47,SSE,164,4.0,7.0,40,0.00,,,0.06,,2013-03-22 19:02:00,
2013-03-22 15:12:00,35.0,13.0,29.47,SSE,164,4.0,7.0,40,0.00,,,0.06,,2013-03-22 19:12:00,
2013-03-22 15:22:00,35.0,13.0,29.47,SSE,164,4.0,7.0,40,0.00,,,0.06,,2013-03-22 19:22:00,
2013-03-22 16:02:00,35.0,13.0,29.47,West,261,4.0,16.0,40,0.01,,,0.05,,2013-03-22 20:02:00,
2013-03-22 16:13:00,34.0,15.0,29.49,SE,145,0.0,2.0,46,0.00,,,0.03,,2013-03-22 20:13:00,
2013-03-22 16:20:00,35.0,17.0,29.49,SSW,206,0.0,0.0,47,0.00,,,0.03,,2013-03-22 20:20:00,
2013-03-22 16:22:00,34.0,15.0,29.49,SE,145,0.0,2.0,46,0.00,,,0.03,,2013-03-22 20:22:00,
2013-03-22 16:32:00,34.0,15.0,29.49,SE,145,0.0,2.0,46,0.00,,,0.03,,2013-03-22 20:32:00,
2013-03-22 16:43:00,34.0,15.0,29.49,SE,145,0.0,2.0,46,0.00,,,0.03,,2013-03-22 20:43:00,
2013-03-22 16:52:00,35.0,17.0,29.49,SSW,206,0.0,0.0,47,0.00,,,0.03,,2013-03-22 20:52:00,
2013-03-22 17:03:00,35.0,17.0,29.49,SSW,206,0.0,0.0,47,0.00,,,0.03,,2013-03-22 21:03:00,
2013-03-22 17:12:00,35.0,17.0,29.49,SSW,206,0.0,0.0,47,0.00,,,0.03,,2013-03-22 21:12:00,
2013-03-22 18:23:00,32.0,13.0,29.49,West,263,6.0,6.0,45,0.00,,,0.03,,2013-03-22 22:23:00,
2013-03-22 18:32:00,32.0,14.0,29.49,WSW,241,0.0,6.0,47,0.00,,,0.03,,2013-03-22 22:32:00,
2013-03-22 18:43:00,32.0,14.0,29.49,WSW,241,0.0,6.0,47,0.00,,,0.03,,2013-03-22 22:43:00,
2013-03-22 18:52:00,32.0,14.0,29.49,WSW,241,0.0,6.0,47,0.00,,,0.03,,2013-03-22 22:52:00,
2013-03-22 19:02:00,30.0,16.0,29.50,WSW,247,0.0,5.0,55,0.00,,,0.03,,2013-03-22 23:02:00,
2013-03-22 19:12:00,30.0,16.0,29.50,WSW,247,0.0,5.0,55,0.00,,,0.03,,2013-03-22 23:12:00,
2013-03-22 19:22:00,30.0,16.0,29.50,WSW,247,0.0,5.0,55,0.00,,,0.03,,2013-03-22 23:22:00,
2013-03-22 19:32:00,29.0,15.0,29.51,WSW,240,0.0,8.0,56,0.00,,,0.03,,2013-03-22 23:32:00,
2013-03-22 19:42:00,29.0,15.0,29.51,WSW,240,0.0,8.0,56,0.00,,,0.03,,2013-03-22 23:42:00,
2013-03-22 19:52:00,29.0,15.0,29.51,WSW,240,0.0,8.0,56,0.00,,,0.03,,2013-03-22 23:52:00,
2013-03-22 20:02:00,29.0,18.0,29.52,WSW,254,3.0,8.0,62,0.00,,,0.03,,2013-03-23 00:02:00,
2013-03-22 20:12:00,29.0,18.0,29.52,WSW,254,3.0,8.0,62,0.00,,,0.03,,2013-03-23 00:12:00,
2013-03-22 20:23:00,28.0,20.0,29.52,SSW,209,0.0,7.0,70,0.00,,,0.03,,2013-03-23 00:23:00,
2013-03-22 20:33:00,28.0,20.0,29.52,SSW,209,0.0,7.0,70,0.00,,,0.03,,2013-03-23 00:33:00,
2013-03-22 20:42:00,28.0,20.0,29.52,SW,234,0.0,2.0,71,0.00,,,0.03,,2013-03-23 00:42:00,
2013-03-22 20:52:00,28.0,20.0,29.52,SW,234,0.0,2.0,71,0.00,,,0.03,,2013-03-23 00:52:00,
2013-03-22 21:03:00,28.0,19.0,29.52,West,265,1.0,5.0,68,0.00,,,0.03,,2013-03-23 01:03:00,
2013-03-22 21:12:00,28.0,19.0,29.52,West,265,1.0,5.0,68,0.00,,,0.03,,2013-03-23 01:12:00,
2013-03-22 21:22:00,28.0,19.0,29.52,West,265,1.0,5.0,68,0.00,,,0.03,,2013-03-23 01:22:00,
2013-03-22 21:32:00,28.0,19.0,29.52,West,265,1.0,5.0,68,0.00,,,0.03,,2013-03-23 01:32:00,
2013-03-22 21:42:00,28.0,19.0,29.52,West,265,1.0,5.0,68,0.00,,,0.03,,2013-03-23 01:42:00,
2013-03-22 21:52:00,28.0,18.0,29.52,SW,219,3.0,12.0,65,0.00,,,0.03,,2013-03-23 01:52:00,
2013-03-22 22:02:00,28.0,18.0,29.52,SW,219,3.0,12.0,65,0.00,,,0.03,,2013-03-23 02:02:00,
2013-03-22 22:12:00,28.0,18.0,29.52,SW,219,3.0,12.0,65,0.00,,,0.03,,2013-03-23 02:12:00,
2013-03-22 22:22:00,28.0,19.0,29.52,West,261,0.0,0.0,69,0.00,,,0.03,,2013-03-23 02:22:00,
2013-03-22 22:32:00,28.0,18.0,29.52,West,264,4.0,5.0,67,0.00,,,0.03,,2013-03-23 02:32:00,
2013-03-22 22:42:00,28.0,18.0,29.52,West,264,4.0,5.0,67,0.00,,,0.03,,2013-03-23 02:42:00,
2013-03-22 22:52:00,28.0,18.0,29.52,West,264,4.0,5.0,67,0.00,,,0.03,,2013-03-23 02:52:00,
2013-03-22 23:02:00,27.0,17.0,29.52,WSW,257,0.0,7.0,66,0.00,,,0.03,,2013-03-23 03:02:00,
2013-03-22 23:12:00,27.0,17.0,29.52,WSW,257,0.0,7.0,66,0.00,,,0.03,,2013-03-23 03:12:00,
2013-03-22 23:23:00,27.0,17.0,29.52,WSW,256,0.0,3.0,66,0.00,,,0.03,,2013-03-23 03:23:00,
2013-03-22 23:33:00,27.0,17.0,29.52,WSW,256,0.0,3.0,66,0.00,,,0.03,,2013-03-23 03:33:00,
2013-03-22 23:44:00,27.0,17.0,29.52,WSW,256,0.0,3.0,66,0.00,,,0.03,,2013-03-23 03:44:00,
2013-03-22 23:53:00,27.0,15.0,29.52,WSW,239,6.0,7.0,61,0.00,,,0.03,,2013-03-23 03:53:00,